This is the latest recevied weather packets stored in our database for station/object SP3PDK-1. If no packets are shown the sender has not sent any weather packets the latest 10 day(s).
| Time | Temp. | Humidity | Pressure | Rain* | Wind** | Luminosity | Snow |
|---|---|---|---|---|---|---|---|
| 1778040258 | 15° C | 80% | 1003.8 hPa | - | - | - | - |
| 1778039658 | 14.44° C | 85% | 1003.3 hPa | - | - | - | - |
| 1778039059 | 13.89° C | 87% | 1003.1 hPa | - | - | - | - |
| 1778038456 | 14.44° C | 86% | 1003.4 hPa | - | - | - | - |
| 1778037857 | 14.44° C | 83% | 1003.6 hPa | - | - | - | - |
| 1778037258 | 14.44° C | 82% | 1003.7 hPa | - | - | - | - |
| 1778036658 | 13.89° C | 84% | 1003.7 hPa | - | - | - | - |
| 1778036056 | 14.44° C | 80% | 1003.7 hPa | - | - | - | - |
| 1778035454 | 15° C | 77% | 1003.9 hPa | - | - | - | - |
| 1778034854 | 14.44° C | 81% | 1004.1 hPa | - | - | - | - |
| 1778034258 | 15° C | 77% | 1004.2 hPa | - | - | - | - |
| 1778033658 | 15° C | 77% | 1004.2 hPa | - | - | - | - |
| 1778033057 | 15° C | 77% | 1004.3 hPa | - | - | - | - |
| 1778032458 | 15.56° C | 77% | 1004.4 hPa | - | - | - | - |
| 1778031853 | 15.56° C | 74% | 1004.3 hPa | - | - | - | - |
| 1778031258 | 16.11° C | 73% | 1004.2 hPa | - | - | - | - |
| 1778030056 | 16.11° C | 74% | 1004.4 hPa | - | - | - | - |
| 1778029453 | 15.56° C | 76% | 1004.4 hPa | - | - | - | - |
| 1778028855 | 15.56° C | 76% | 1004.3 hPa | - | - | - | - |
| 1778028258 | 15.56° C | 76% | 1004.3 hPa | - | - | - | - |
| 1778027657 | 15.56° C | 76% | 1004.2 hPa | - | - | - | - |
| 1778027058 | 15.56° C | 76% | 1004.2 hPa | - | - | - | - |
| 1778026457 | 16.11° C | 74% | 1004.1 hPa | - | - | - | - |
| 1778025858 | 15.56° C | 75% | 1004.2 hPa | - | - | - | - |
| 1778025254 | 16.11° C | 74% | 1004.3 hPa | - | - | - | - |
* Rain since midnight (hover to see other rain measurements)
** Current wind speed in m/s (hover to see current wind gust speed)